星链-31765 (STARLINK-31765 )

导读 | 豆包AI

STARLINK-31765是美国太空探索技术公司(SpaceX)于2024年4月28日发射的Starlink星链互联网卫星,归属Starlink V1.0平台。该卫星运行于近地轨道,轨道倾角约43度,近地点约355公里,远地点约357公里,周期约91.7分钟。它是星链全球卫星互联网项目的组成部分,旨在为全球提供高速低延迟互联网服务,尤其服务偏远地区,也可支持军事、航空等领域通信。

基本信息
目录编号:
59604
目录名称:
STARLINK-31765
国际标识:
2024-080D
轨道中心:
EARTH
卫星名称:
星链-31765
卫星全名:
星链-31765 (STARLINK-31765 )
卫星状态:
在轨 (已飞行733 天)
发射日期:
2024-04-28 UTC
国别 :
美国 (US)
星等 :
--
轨道信息
数据来源 国际轨道数据
星历时间: 2026-04-30T08:24:29+0800
1天前
查看轨道信息
半长轴: 6861.202km
偏心率: 0.0000976
轨道倾角: 43.004°
近地点辐角 244.685°
升交点赤经 104.478°
平近点角 115.391°
近地点: 482.395km
远地点: 483.735km
周期: 94.267分钟
每日圈数: 15.27575
详细信息
固有亮度:
5
最大亮度:
1.5
卫星平台:
Starlink v2.0 mini
覆盖范围:
全球
运营商:
太空探索技术公司
运营商所在国:
美国
制造商(研发单位):
太空探索技术公司
制造商所在国:
美国
使用方式:
暂无
卫星简介
星链(Starlink)计划是由太空探索技术公司(SpaceX)提出的一个巨型低轨卫星互联网星座项目,计划在2019年至2024年间在太空搭建由约1.2万颗卫星组成的“星链”网络,其中1584颗将部署在地球上空550千米处的近地轨道,并从2020年开始工作。该卫星仍在工作。
2D轨道图
3D轨道图
轨道高度分析图
轨道倾角分析图
轨道综合分析图
查看轨道综合分析图